Location: Saginaw
(43.4190°N, 83.9510°W)
Time: 20:19:11
(UTC-04:00)

Envisat - Visible Passes

Search period start: 20 April 2018 00:00
Search period end: 30 April 2018 00:00
Orbit: 764 x 766 km, 98.2° (Epoch: 20 April)

Date Brightness Start Highest point End Pass type
(mag) Time Alt. Az. Time Alt. Az. Time Alt. Az.
20 Apr 5.7 22:26:04 10° WSW 22:28:37 14° W 22:31:12 10° WNW visible
21 Apr 4.8 21:47:06 10° SSW 21:51:31 30° W 21:55:59 10° NW visible
22 Apr 3.4 21:09:36 10° S 21:14:39 66° W 21:19:43 10° NNW visible
23 Apr 5.6 22:14:00 10° SW 22:17:21 18° W 22:20:43 10° NW visible
24 Apr 4.4 21:35:37 10° SSW 21:40:18 37° W 21:45:02 10° NNW visible
25 Apr 3.1 20:58:24 10° SSE 21:03:29 82° WSW 21:08:36 10° NNW visible
26 Apr 5.3 22:02:11 10° SW 22:06:05 22° W 22:10:00 10° NW visible
27 Apr 4.0 21:24:14 10° S 21:29:07 47° W 21:34:02 10° NNW visible
28 Apr 5.8 22:29:50 10° WSW 22:31:58 12° W 22:34:05 10° WNW visible
29 Apr 5.0 21:50:33 10° SSW 21:54:50 27° W 21:59:10 10° NW visible
